sat.trackr.live / text

‹ back to catalog

STARLINK-4564

NORAD 53560 · 2022-101AK

PAYLOAD ACTIVE UNKNOWN

§ Identity

Operator
Country
US
Launch date
2022-08-19
Launch site
AFETR
Launch vehicle
Mass (kg)
RCS (m²)

Purposes: comms

External: N2YO · Heavens-Above · Gunter

§ Orbital elements

Epoch: 2026-09-19T16:57:44.081280Z

Period
94.01 min
Inclination
53.1586°
Eccentricity
0.0001261
Mean motion
15.31696684 rev/d
Perigee alt
469.9 km
Apogee alt
471.6 km
Semi-major
6,848.9 km
B*
2.7343e-5
RAAN
253.4889°
Arg perigee
73.9158°
Mean anomaly
286.1982°
Rev number
22,586

§ Raw data

STARLINK-45641 53560U 22101AK  26262.70676020  .00000483  00000+0  27343-4 0  99982 53560  53.1586 253.4889 0001261  73.9158 286.1982 15.31696684225869

JSON: /api/v1/satellites/53560 · /tle

For live sub-satellite position, see the globe view (requires WebGL).

§ Visibility from observer

Set your observer location to see the next 7 days of passes ≥ 10°. The values pass through the URL so the page stays shareable.

No JS? Fill the form by hand. The geolocation button needs JavaScript.